Content
SEND FEEDBACK

Daily
Averages
Monthly
Summary
United States of America

TAMUNING, GUAM


Home > North America > United States > Guam
Elevation: 250 feet     Latitude: 13 29N     Longitude: 144 47E

WEATHER
 
SELECT A DAY
Number of Records: 351,620;   Date Range: 1/1/95 - 10/20/14
 
SHARE

PRINT THIS DATA

[ ← Previous Day ]
WEATHER ALMANAC - APRIL 1, 2014
[ Next Day → ]
[ °C ]   °F
Weather ElementAverageHighLow
Temperature80.2 °F83.5 °F (12:58 pm)75.2 °F (5:13 am)
Dewpoint73.4 °F75.2 °F (7:53 pm)70 °F (5:58 am)
Humidity80.1 %89 % (5:13 am)69 % (12:58 pm)
Barometer29.83 in29.91 in (9:53 am)29.76 in (4:58 pm)
Wind Speed12.2 mph17.3 mph (7:53 pm)
Wind Gust17.3 mph (2:13 pm)
Weather ElementAverage
Visibility10 mi
Wind DirectionENE (51 °)

Weather ElementTotal
Precipitation---
Cooling Degree Days14.4 (Base 65)
Growing Degree Days29.4 (Base 50)
Averaged from 67 records on April 1, 2014
WEATHER CONDITIONS BREAKOUT
WIND DIRECTION BREAKOUT
WEATHER BY HOUR - APRIL 1, 2014
[ °C ]   °F
Local TimeTemperatureDewpointHumidityBarometerVisibilityWind DirectionWind SpeedGust SpeedPrecipitationEventsConditions
1:58 AM77.0 °F71.2 °F82 %29.83 in10.0 miENE (60°)10.4 mphScattered Clouds
2:58 AM76.3 °F70.5 °F82 %29.83 in10.0 miENE (60°)10.4 mphClear
3:58 AM76.6 °F72.0 °F85 %29.83 in10.0 miENE (60°)8.1 mphMostly Cloudy
4:03 AM77.0 °F71.6 °F83 %29.86 in10.0 miNE (50°)6.9 mphMostly Cloudy
4:08 AM77.0 °F71.6 °F83 %29.86 in10.0 miENE (60°)8.1 mphScattered Clouds
4:58 AM76.3 °F71.4 °F85 %29.83 in10.0 miENE (60°)9.2 mphScattered Clouds
5:03 AM77.0 °F71.6 °F83 %29.86 in10.0 miENE (70°)9.2 mphMostly Cloudy
5:13 AM75.2 °F71.6 °F89 %29.86 in10.0 miEast (80°)8.1 mphScattered Clouds
5:58 AM75.2 °F70.0 °F84 %29.84 in10.0 miENE (70°)8.1 mphClear
6:58 AM76.5 °F71.2 °F84 %29.86 in10.0 miENE (70°)8.1 mphClear
7:58 AM80.2 °F72.3 °F77 %29.87 in10.0 miENE (70°)8.1 mphClear
8:58 AM82.2 °F72.7 °F73 %29.88 in10.0 miNE (50°)9.2 mphPartly Cloudy
9:53 AM80.6 °F71.6 °F74 %29.91 in10.0 miENE (60°)11.5 mphMostly Cloudy
9:58 AM81.5 °F72.5 °F74 %29.88 in10.0 miNNE (30°)12.7 mphMostly Cloudy
10:08 AM80.6 °F73.4 °F79 %29.91 in10.0 miNNE (30°)11.5 mphScattered Clouds
10:58 AM82.2 °F72.9 °F73 %29.88 in10.0 miNE (40°)10.4 mphPartly Cloudy
11:58 AM83.1 °F72.7 °F71 %29.86 in10.0 miNE (40°)11.5 mphPartly Cloudy
12:58 PM83.5 °F72.3 °F69 %29.83 in10.0 miNNE (30°)11.5 mphMostly Cloudy
1:03 PM82.4 °F73.4 °F74 %29.86 in10.0 miNNE (30°)10.4 mphMostly Cloudy
1:08 PM82.4 °F73.4 °F74 %29.86 in10.0 miNE (50°)11.5 mphMostly Cloudy
1:18 PM82.4 °F73.4 °F74 %29.85 in10.0 miNNE (30°)11.5 mphMostly Cloudy
1:23 PM82.4 °F73.4 °F74 %29.85 in10.0 miNE (50°)11.5 mphOvercast
1:28 PM82.4 °F73.4 °F74 %29.85 in10.0 miNE (50°)9.2 mphOvercast
1:58 PM82.0 °F73.2 °F75 %29.81 in10.0 miNE (40°)11.5 mphMostly Cloudy
2:13 PM82.4 °F73.4 °F74 %29.84 in10.0 miNNE (30°)10.4 mph17.3 mphMostly Cloudy
2:33 PM82.4 °F73.4 °F74 %29.83 in10.0 miNE (40°)12.7 mphMostly Cloudy
2:38 PM82.4 °F73.4 °F74 %29.82 in10.0 miNE (40°)15.0 mphMostly Cloudy
2:58 PM82.4 °F73.4 °F74 %29.78 in10.0 miNNE (30°)12.7 mphMostly Cloudy
3:13 PM82.4 °F73.4 °F74 %29.81 in10.0 miNE (40°)13.8 mphScattered Clouds
3:38 PM82.4 °F73.4 °F74 %29.81 in10.0 miNE (40°)11.5 mphMostly Cloudy
3:48 PM82.4 °F73.4 °F74 %29.80 in10.0 miNE (40°)12.7 mphScattered Clouds
3:58 PM82.6 °F73.2 °F73 %29.77 in10.0 miNE (40°)11.5 mphPartly Cloudy
4:33 PM82.4 °F73.4 °F74 %29.79 in10.0 miNE (40°)13.8 mphMostly Cloudy
4:48 PM82.4 °F73.4 °F74 %29.79 in10.0 miNE (40°)13.8 mphScattered Clouds
4:58 PM82.4 °F73.4 °F74 %29.76 in10.0 miNE (50°)16.1 mphScattered Clouds
5:03 PM82.4 °F73.4 °F74 %29.80 in10.0 miNE (50°)12.7 mphMostly Cloudy
5:08 PM82.4 °F73.4 °F74 %29.80 in10.0 miNE (50°)13.8 mphMostly Cloudy
5:18 PM80.6 °F73.4 °F79 %29.80 in10.0 miNE (40°)12.7 mphMostly Cloudy
5:23 PM80.6 °F73.4 °F79 %29.80 in10.0 miNE (50°)15.0 mphMostly Cloudy
5:33 PM80.6 °F73.4 °F79 %29.80 in10.0 miNE (50°)12.7 mphMostly Cloudy
5:38 PM80.6 °F73.4 °F79 %29.80 in10.0 miNE (40°)12.7 mphMostly Cloudy
5:43 PM80.6 °F73.4 °F79 %29.80 in10.0 miNE (50°)13.8 mphScattered Clouds
5:58 PM80.4 °F73.6 °F80 %29.78 in10.0 miNE (50°)15.0 mphScattered Clouds
6:38 PM80.6 °F73.4 °F79 %29.81 in10.0 miNE (50°)13.8 mphMostly Cloudy
6:43 PM80.6 °F73.4 °F79 %29.81 in10.0 miNE (50°)12.7 mphMostly Cloudy
6:58 PM79.9 °F74.1 °F82 %29.79 in10.0 miNE (50°)12.7 mphMostly Cloudy
7:03 PM80.6 °F73.4 °F79 %29.82 in10.0 miNE (50°)13.8 mphMostly Cloudy
7:08 PM80.6 °F73.4 °F79 %29.82 in10.0 miNE (50°)15.0 mphMostly Cloudy
7:18 PM80.6 °F73.4 °F79 %29.83 in10.0 miNE (50°)16.1 mphMostly Cloudy
7:28 PM80.6 °F73.4 °F79 %29.83 in10.0 miENE (60°)13.8 mphMostly Cloudy
7:53 PM80.6 °F75.2 °F84 %29.84 in10.0 miNE (50°)17.3 mphMostly Cloudy
7:58 PM80.6 °F75.2 °F84 %29.81 in10.0 miNE (50°)16.1 mphMostly Cloudy
8:03 PM78.8 °F75.2 °F89 %29.84 in10.0 miNE (50°)16.1 mphScattered Clouds
8:58 PM79.0 °F74.7 °F87 %29.82 in10.0 miENE (60°)15.0 mphMostly Cloudy
9:08 PM78.8 °F75.2 °F89 %29.85 in10.0 miENE (60°)13.8 mphMostly Cloudy
9:13 PM78.8 °F75.2 °F89 %29.85 in10.0 miENE (60°)12.7 mphMostly Cloudy
9:28 PM78.8 °F75.2 °F89 %29.85 in10.0 miENE (60°)13.8 mphScattered Clouds
9:33 PM78.8 °F75.2 °F89 %29.85 in10.0 miENE (60°)15.0 mphMostly Cloudy
9:38 PM78.8 °F75.2 °F89 %29.85 in10.0 miENE (60°)12.7 mphScattered Clouds
9:58 PM78.3 °F74.7 °F89 %29.83 in10.0 miENE (60°)11.5 mphPartly Cloudy
10:23 PM78.8 °F75.2 °F89 %29.86 in10.0 miENE (60°)12.7 mphMostly Cloudy
10:53 PM78.8 °F75.2 °F89 %29.86 in10.0 miENE (60°)12.7 mphMostly Cloudy
10:58 PM79.2 °F75.2 °F88 %29.83 in10.0 miENE (60°)12.7 mphMostly Cloudy
11:08 PM78.8 °F75.2 °F89 %29.86 in10.0 miENE (70°)13.8 mphMostly Cloudy
11:13 PM78.8 °F75.2 °F89 %29.86 in10.0 miENE (70°)10.4 mphMostly Cloudy
11:53 PM78.8 °F75.2 °F89 %29.86 in10.0 miENE (60°)10.4 mphLight Drizzle
11:58 PM78.8 °F75.2 °F89 %29.83 in10.0 miENE (60°)10.4 mph0.00 inLight Drizzle
Hourly data recorded from PGUA, located miles away from Tamuning, Guam







STORIES FROM OUR PARTNERS